Regional Weather Roundup
Issued by NWS Albany, NY

Home | Current Version | Previous Version | Graphics & Text | Print | Product List | Glossary Off
Versions: 1 2 3 4 5 6 7 8 9 10 11 12 13 14 15 16 17 18 19 20 21 22 23 24 25 26 27 28 29 30 31 32 33 34 35 36 37 38 39 40 41 42 43 44 45 46 47 48 49 50

000
ASUS41 KALY 031310
RWRALY

NEW YORK STATE HOURLY WEATHER ROUNDUP
NATIONAL WEATHER SERVICE ALBANY NY
900 AM EDT MON AUG 03 2015

NOTE: "FAIR" INDICATES FEW OR NO CLOUDS BELOW 12,000 FEET WITH NO
SIGNIFICANT WEATHER AND/OR NO OBSTRUCTIONS TO VISIBILITY.

NYZ032-033-038>043-046>054-057>066-NYZ062>081-031400-
EAST


CITY           SKY/WX    TMP DP  RH WIND       PRES   REMARKS
ALBANY         MOSUNNY   76  61  59 S12       29.78S
GLENS FALLS    SUNNY     73  61  65 S12       29.75F
POUGHKEEPSIE   SUNNY     80  61  52 SW7       29.82F
MONTGOMERY     SUNNY     76  63  64 SW8       29.84S
WHITE PLAINS   SUNNY     78  61  55 SW6       29.85S
ISLIP          MOSUNNY   80  64  58 SW12      29.85S
NEW YORK CITY  MOSUNNY   81  60  48 SW10      29.84F
CENTRAL PARK   SUNNY     78  61  55 CALM      29.87F
$$

NYZ005>009-017-018-044>046-055-056-031400-
CENTRAL


CITY           SKY/WX    TMP DP  RH WIND       PRES   REMARKS
FULTON         CLOUDY    71  62  73 W6        29.73R
SYRACUSE       CLOUDY    76  62  62 W14       29.72R
ROME           PTSUNNY   76  63  64 CALM      29.73R
ELMIRA         MOSUNNY   75  63  66 SW14      29.75S
BINGHAMTON     MOSUNNY   71  61  70 SW12G18   29.80F
MONTICELLO     SUNNY     72  63  73 SW6       29.88F
$$

NYZ026>034-041>043-031400-
NORTH


CITY           SKY/WX    TMP DP  RH WIND       PRES   REMARKS
WATERTOWN      CLOUDY    72  62  71 W8        29.71S
FORT DRUM      NOT AVBL
MASSENA        CLOUDY    70  62  76 SW9       29.66R
SARANAC LAKE   CLOUDY    70  60  70 SW12      29.72R
PLATTSBURGH    MOSUNNY   76  63  64 S16       29.66S
$$

NYZ001>004-010>016-019>021-031400-
WEST


CITY           SKY/WX    TMP DP  RH WIND       PRES   REMARKS
NIAGARA FALLS  CLOUDY    68  62  81 W17       29.73R
BUFFALO        CLOUDY    71  61  70 W21G29    29.74R
DUNKIRK        CLOUDY    70  58  65 SW9       29.77R
JAMESTOWN      CLOUDY    64  54  68 SW12      29.82R
WELLSVILLE     CLOUDY    69  57  65 S8        29.81F
ROCHESTER      CLOUDY    71  58  63 W8        29.75R
PENN YAN       PTSUNNY   76  62  62 SW10G17   29.74R
$$

             KEY
       WCI = WIND CHILL INDEX
       VSB = VISIBILITY
       HX  = HEAT INDEX
$$


USA.gov is the U.S. government's official web portal to all federal, state and local government web resources and services.